Home > Weather > Seattle > Past weeks

Flag for U.S.A. Weather for the Past 2 Weeks in Seattle, Washington, U.S.A.

Now
50 °F

Light rain. Overcast.


Feels Like: 48 °F
Forecast: 43 / 50 °F
Wind: 5 mph from North

Location: Seattle Boeing Field

Current Time: Feb 5, 2016 at 5:45:44 PM

Latest Report: Feb 5, 2016 at 4:53 PM


Visibility: 5 mi

Pressure: 30.03 "Hg

Humidity: 80%

Dew point: 44 °F

Location of SeattleLocation

Historic Weather in Seattle — Graph

°F

Seattle Temperature Yesterday

Maximum temperature yesterday: 49 °F (at 6:53 PM)
Minimum temperature yesterday: 45 °F (at 1:53 AM)
Average temperature yesterday: 47 °F

High & Low Weather Summary for the Past Weeks

 TemperatureHumidityPressure
High57 °F (Jan 27, 1:53 PM)100% (Jan 23, 5:53 AM)30.39 "Hg (Jan 23, 5:53 AM)
Low35 °F (Feb 2, 7:53 AM)56% (Feb 2, 3:53 PM)29.60 "Hg (Jan 29, 8:53 AM)
Average47 °F86%30.05 "Hg
* Reported Jan 21 3:53 PM — Feb 5 3:53 PM, Seattle, Weather by CustomWeather, © 2016

Note: Actual official high and low records may vary slightly from our data, if they occured in-between our weather recording intervals... More about our weather records

Advertising

Seattle Weather History for the Previous 24 Hours

 ConditionsComfort  
Time TempWeatherWind HumidityBarometerVisibility
3:53 PM
Fri, Feb 5
51 °FMostly cloudy.3 mph71%29.98 "Hg10 mi
2:53 PM53 °FScattered clouds.3 mph64%30.01 "Hg10 mi
1:53 PM50 °FOvercast.12 mph77%30.06 "Hg10 mi
12:53 PM50 °FOvercast.8 mph80%30.10 "Hg10 mi
11:53 AM50 °FPartly sunny.6 mph74%30.15 "Hg10 mi
10:53 AM49 °FPartly sunny.3 mph84%30.17 "Hg10 mi
9:53 AM47 °FScattered clouds.6 mph86%30.18 "Hg10 mi
8:53 AM44 °FPartly sunny.No wind96%30.20 "Hg10 mi
7:53 AM43 °FPartly sunny.6 mph97%30.20 "Hg10 mi
6:53 AM42 °FPassing clouds.5 mph96%30.22 "Hg10 mi
5:53 AM44 °FLight rain. Passing clouds.No wind100%30.24 "Hg10 mi
4:53 AM42 °FClear.No wind100%30.26 "Hg10 mi
3:53 AM43 °FPassing clouds.No wind97%30.29 "Hg10 mi
2:53 AM45 °FPassing clouds.No wind97%30.31 "Hg10 mi
1:53 AM46 °FClear.No wind89%30.33 "Hg10 mi
12:53 AM46 °FClear.No wind93%30.35 "Hg10 mi
11:53 PM
Thu, Feb 4
48 °FClear.3 mph86%30.35 "Hg10 mi
10:53 PM48 °FClear.7 mph89%30.35 "Hg10 mi
9:53 PM48 °FClear.8 mph93%30.37 "Hg10 mi
8:53 PM49 °FPassing clouds.6 mph90%30.38 "Hg10 mi
7:53 PM49 °FPassing clouds.3 mph90%30.38 "Hg10 mi
6:53 PM49 °FPartly cloudy.12 mph90%30.37 "Hg10 mi
5:53 PM48 °FMostly cloudy.10 mph89%30.39 "Hg10 mi
Weather by CustomWeather, © 2016

See weather overviewHow to use our weather pages